Regional Weather Roundup
Issued by NWS

Home | Current Version | Previous Version | Text Only | Print | Product List | Glossary Off
Versions: 1 2 3 4 5 6 7 8 9 10 11 12 13 14 15 16 17 18 19 20 21 22 23 24 25 26 27 28 29 30 31 32 33 34 35 36 37 38 39 40 41 42 43 44 45 46 47 48 49 50

000
ASUS43 KDMX 281308
RWRIA

WEATHER ROUNDUP FOR IOWA
NATIONAL WEATHER SERVICE DES MOINES IA
800 AM CDT SAT MAY 28 2016

NOTE: "FAIR" INDICATES FEW OR NO CLOUDS BELOW 12,000 FEET WITH NO
SIGNIFICANT WEATHER AND/OR OBSTRUCTIONS TO VISIBILITY.

* - THESE STATIONS ARE NOT NWS STATIONS...THUS NOT UNDER NWS
QUALITY CONTROL.  THEY ALSO DO NOT REPORT WEATHER SUCH
AS PRECIPITATION OR FOG.

IAZ001>003-012>014-020>022-031>034-043>046-281400-
   NORTHWEST IOWA

CITY           SKY/WX    TMP DP  RH WIND       PRES   REMARKS
CARROLL *      MOSUNNY   66  63  88 S8        29.74S
CHEROKEE *     CLOUDY    64  63  94 SW5       29.75R
DENISON *      CLOUDY    63  61  94 SW13G20   29.74R
LE MARS *      PTSUNNY   63  59  88 S9        29.75R
ORANGE CITY *  LGT RAIN  63  63 100 S6        29.74S
SHELDON *      CLOUDY    63  63 100 CALM      29.74R FOG
SIOUX CITY     CLOUDY    62  57  83 S14       29.74R
SPENCER        HVY RAIN  63  60  90 SW9       29.75R VSB 1/2
STORM LAKE *   MOSUNNY   64  61  88 S7        29.76R
$$

IAZ055>058-069>071-079>083-090>094-281400-
   SOUTHWEST IOWA

CITY           SKY/WX    TMP DP  RH WIND       PRES   REMARKS
ATLANTIC *     CLOUDY   N/A N/A N/A S10G17    29.76R
AUDUBON *      MOSUNNY   64  61  88 S8        29.77R
CLARINDA *       N/A     63  61  94 MISG      29.78R
COUNCIL BLFS * PTSUNNY   61  59  94 SW12      29.76S
CRESTON *      CLOUDY    63  63 100 S10       29.77F
HARLAN  *      CLOUDY    61  61 100 SW12      29.79R
LAMONI         CLOUDY    63  62  97 S12       29.78R
RED OAK *      CLOUDY    61  59  94 SW7       29.77R
SHENANDOAH *   CLOUDY    63  63 100 SW6       29.77S
$$

IAZ047>049-059>061-072>074-084-281400-
   CENTRAL IOWA

CITY           SKY/WX    TMP DP  RH WIND       PRES   REMARKS
AMES           CLOUDY    64  62  93 S3        29.77R
ANKENY *       PTSUNNY   64  64 100 VRB5      29.76R
BOONE *        PTSUNNY   64  61  88 S7        29.76R
CHARITON *     CLOUDY    64  64 100 S14       29.78R
DES MOINES     CLOUDY    65  60  84 S8        29.76R
GRINNELL*      CLOUDY    64  63  94 S8        29.78S
KNOXVILLE *    CLOUDY    64  63  94 S7        29.76R
MARSHALLTOWN   CLOUDY    64  62  93 S3        29.77R
NEWTON *       CLOUDY    63  63 100 S10       29.77S FOG
PERRY *        PTSUNNY   64  63  94 S9        29.75S
$$

IAZ004>006-015-016-023>025-035-036-281400-
   NORTH CENTRAL IOWA

CITY           SKY/WX    TMP DP  RH WIND       PRES   REMARKS
ALGONA *       PTSUNNY   64  63  94 S10       29.76R
CLARION *      CLOUDY    64  63  94 SW6       29.76S
ESTHERVILLE    CLOUDY    65  64  97 S9        29.74S
FORT DODGE *   CLOUDY    63  57  82 CALM      29.77S
MASON CITY     HVY RAIN  64  62  93 SE8       29.78R FOG
FOREST CITY *  PTSUNNY   64  63  94 CALM      29.76R
WEBSTER CITY * CLOUDY    64  63  94 S6        29.74S
IOWA FALLS *   DRIZZLE   63  61  94 CALM      29.78S
$$

IAZ007>011-017>019-026>030-037>042-050>054-066-281400-
   NORTHEAST IOWA

CITY           SKY/WX    TMP DP  RH WIND       PRES   REMARKS
CEDAR RAPIDS   MOSUNNY   65  64  97 SE8       29.77S
CHARLES CITY * CLOUDY    64  64 100 S8        29.77R
CLINTON *      CLOUDY    69  66  90 S9        29.82R
DECORAH *      CLOUDY    66  66 100 CALM      29.75R FOG
DUBUQUE        CLOUDY    64  62  93 SW10      29.80R
MONTICELLO *   MOSUNNY   64  63  94 S10       29.79R
OELWEIN *      CLOUDY    64  64 100 S10       29.79R
WATERLOO       CLOUDY    65  62  90 S7        29.77R
$$

IAZ064-065-067-068-078-281400-
   EAST CENTRAL IOWA

CITY           SKY/WX    TMP DP  RH WIND       PRES   REMARKS
DAVENPORT      CLOUDY    69  66  90 S8        29.82R
IOWA CITY      CLOUDY    64  63  96 SE7       29.80S
MT. PLEASANT * CLOUDY    72  70  94 S14G20    29.81R
MUSCATINE *    CLOUDY    68  66  94 S5        29.81S
QUAD CITIES    CLOUDY    72  66  81 S12G20    29.80S
$$

IAZ062-063-075>077-085>089-095>099-281400-
   SOUTHEAST IOWA

CITY           SKY/WX    TMP DP  RH WIND       PRES   REMARKS
BURLINGTON     CLOUDY    69  67  93 S14       29.83R
FAIRFIELD *      N/A    N/A N/A N/A MISG        N/A
FORT MADISON * CLOUDY    70  66  88 S13       29.84R
KEOKUK *       MOSUNNY   70  66  88 S13       29.83R
OSKALOOSA *    CLOUDY    64  64 100 S12       29.79R
OTTUMWA        CLOUDY    66  64  93 S12       29.78R
WASHINGTON *   CLOUDY    66 N/A N/A S10       29.81S
$$

ABBREVIATIONS USED IN REMARKS
   TC - TEMPERATURES IN CELSIUS
  WCI - WIND CHILL INDEX
   HX - HEAT INDEX
  VSB - VISIBILITY
$$




USA.gov is the U.S. government's official web portal to all federal, state and local government web resources and services.